Year,Month,Day,Hour,Minute,Value (Times are PST for temperature in C)
2013,03,24,10,05,4.60
2013,03,24,10,06,4.70
2013,03,24,10,07,4.70
2013,03,24,10,08,4.70
2013,03,24,10,09,4.70
2013,03,24,10,10,4.70
2013,03,24,10,11,4.80
2013,03,24,10,12,4.80
2013,03,24,10,13,4.80
2013,03,24,10,14,4.90
2013,03,24,10,15,4.90
2013,03,24,10,16,4.90
2013,03,24,10,17,4.90
2013,03,24,10,18,4.90
2013,03,24,10,19,4.90
2013,03,24,10,20,4.90
2013,03,24,10,21,5.00
2013,03,24,10,22,5.10
2013,03,24,10,23,5.10
2013,03,24,10,24,5.10
2013,03,24,10,25,5.10
2013,03,24,10,26,5.10
2013,03,24,10,27,5.10
2013,03,24,10,28,5.20
2013,03,24,10,29,5.20
2013,03,24,10,30,5.20
2013,03,24,10,31,5.20
2013,03,24,10,32,5.20
2013,03,24,10,33,5.20
2013,03,24,10,34,5.20
2013,03,24,10,35,5.20
2013,03,24,10,36,5.30
2013,03,24,10,37,5.30
2013,03,24,10,38,5.30
2013,03,24,10,39,5.30
2013,03,24,10,40,5.40
2013,03,24,10,41,5.50
2013,03,24,10,42,5.50
2013,03,24,10,43,5.60
2013,03,24,10,44,5.60
2013,03,24,10,45,5.60
2013,03,24,10,46,5.70
2013,03,24,10,47,5.70
2013,03,24,10,48,5.70
2013,03,24,10,49,5.70
2013,03,24,10,50,5.70
2013,03,24,10,51,5.80
2013,03,24,10,52,5.80
2013,03,24,10,53,5.90
2013,03,24,10,54,5.90
2013,03,24,10,55,6.00
2013,03,24,10,56,6.00
2013,03,24,10,57,6.00
2013,03,24,10,58,6.10
2013,03,24,10,59,6.20
2013,03,24,11,00,6.20
2013,03,24,11,01,6.20
2013,03,24,11,02,6.30
2013,03,24,11,03,6.30
2013,03,24,11,04,6.30
2013,03,24,11,05,6.40
2013,03,24,11,06,6.40
2013,03,24,11,07,6.40
2013,03,24,11,08,6.40
2013,03,24,11,09,6.40
2013,03,24,11,10,6.40
2013,03,24,11,11,6.40
2013,03,24,11,12,6.40
2013,03,24,11,13,6.40
2013,03,24,11,14,6.40
2013,03,24,11,15,6.40
2013,03,24,11,16,6.40
2013,03,24,11,17,6.40
2013,03,24,11,18,6.40
2013,03,24,11,19,6.40
2013,03,24,11,20,6.40
2013,03,24,11,21,6.60
2013,03,24,11,22,6.60
2013,03,24,11,23,6.60
2013,03,24,11,24,6.60
2013,03,24,11,25,6.60
2013,03,24,11,26,6.60
2013,03,24,11,27,6.60
2013,03,24,11,28,6.60
2013,03,24,11,29,6.60
2013,03,24,11,30,6.60
2013,03,24,11,31,6.60
2013,03,24,11,32,6.60
2013,03,24,11,33,6.60
2013,03,24,11,34,6.60
2013,03,24,11,35,6.60
2013,03,24,11,36,6.60
2013,03,24,11,37,6.70
2013,03,24,11,38,6.70
2013,03,24,11,39,6.70
2013,03,24,11,40,6.80
2013,03,24,11,41,6.80
2013,03,24,11,42,6.80
2013,03,24,11,43,6.80
2013,03,24,11,44,6.80
2013,03,24,11,45,6.80
2013,03,24,11,46,6.80
2013,03,24,11,47,6.80
2013,03,24,11,48,6.80
2013,03,24,11,49,6.70
2013,03,24,11,50,6.70
2013,03,24,11,51,6.70
2013,03,24,11,52,6.80
2013,03,24,11,53,6.80
2013,03,24,11,54,6.80
2013,03,24,11,55,6.80
2013,03,24,11,56,6.80
2013,03,24,11,57,6.80
2013,03,24,11,58,6.80
2013,03,24,11,59,6.80
2013,03,24,12,00,6.70
2013,03,24,12,01,6.70
2013,03,24,12,02,6.60
2013,03,24,12,03,6.60
2013,03,24,12,04,6.60
2013,03,24,12,05,6.60
2013,03,24,12,06,6.60
2013,03,24,12,07,6.60
2013,03,24,12,08,6.60
2013,03,24,12,09,6.60
2013,03,24,12,10,6.60
2013,03,24,12,11,6.60
2013,03,24,12,12,6.60
2013,03,24,12,13,6.60
2013,03,24,12,14,6.60
2013,03,24,12,15,6.60
2013,03,24,12,16,6.60
2013,03,24,12,17,6.60
2013,03,24,12,18,6.60
2013,03,24,12,19,6.70
2013,03,24,12,20,6.70
2013,03,24,12,21,6.70
2013,03,24,12,22,6.70
2013,03,24,12,23,6.70
2013,03,24,12,24,6.70
2013,03,24,12,25,6.70
2013,03,24,12,26,6.70
2013,03,24,12,27,6.60
2013,03,24,12,28,6.60
2013,03,24,12,29,6.60
2013,03,24,12,30,6.60
2013,03,24,12,31,6.60
2013,03,24,12,32,6.60
2013,03,24,12,33,6.60
2013,03,24,12,34,6.60
2013,03,24,12,35,6.60
2013,03,24,12,36,6.60
2013,03,24,12,37,6.60
2013,03,24,12,38,6.70
2013,03,24,12,39,6.70
2013,03,24,12,40,6.70
2013,03,24,12,41,6.70
2013,03,24,12,42,6.70
2013,03,24,12,43,6.80
2013,03,24,12,44,6.80
2013,03,24,12,45,6.80
2013,03,24,12,46,6.80
2013,03,24,12,47,6.80
2013,03,24,12,48,6.80
2013,03,24,12,49,6.80
2013,03,24,12,50,6.80
2013,03,24,12,51,6.90
2013,03,24,12,52,6.90
2013,03,24,12,53,6.90
2013,03,24,12,54,6.90
2013,03,24,12,55,6.90
2013,03,24,12,56,6.90
2013,03,24,12,57,6.90
2013,03,24,12,58,6.90
2013,03,24,12,59,6.90
2013,03,24,13,00,6.90
2013,03,24,13,01,6.90
2013,03,24,13,02,6.90
2013,03,24,13,03,6.80
2013,03,24,13,04,6.80
2013,03,24,13,05,6.80
2013,03,24,13,06,6.80
2013,03,24,13,07,6.90
2013,03,24,13,08,6.90
2013,03,24,13,09,6.90
2013,03,24,13,10,6.90
2013,03,24,13,11,6.90
2013,03,24,13,12,6.90
2013,03,24,13,13,6.90
2013,03,24,13,14,6.90
2013,03,24,13,15,6.90
2013,03,24,13,16,6.90
2013,03,24,13,17,7.00
2013,03,24,13,18,7.00
2013,03,24,13,19,6.90
2013,03,24,13,20,6.90
2013,03,24,13,21,7.00
2013,03,24,13,22,7.00
2013,03,24,13,23,7.00
2013,03,24,13,24,7.10
2013,03,24,13,25,7.10
2013,03,24,13,26,7.10
2013,03,24,13,27,7.20
2013,03,24,13,28,7.20
2013,03,24,13,29,7.20
2013,03,24,13,30,7.20
2013,03,24,13,31,7.30
2013,03,24,13,32,7.30
2013,03,24,13,33,7.30
2013,03,24,13,34,7.20
2013,03,24,13,35,7.30
2013,03,24,13,36,7.30
2013,03,24,13,37,7.30
2013,03,24,13,38,7.30
2013,03,24,13,39,7.30
2013,03,24,13,40,7.30
2013,03,24,13,41,7.40
2013,03,24,13,42,7.40
2013,03,24,13,43,7.40
2013,03,24,13,44,7.50
2013,03,24,13,45,7.50
2013,03,24,13,46,7.50
2013,03,24,13,47,7.50
2013,03,24,13,48,7.60
2013,03,24,13,49,7.60
2013,03,24,13,50,7.60
2013,03,24,13,51,7.60
2013,03,24,13,52,7.60
2013,03,24,13,53,7.60
2013,03,24,13,54,7.70
2013,03,24,13,55,7.80
2013,03,24,13,56,7.80
2013,03,24,13,57,7.80
2013,03,24,13,58,7.90
2013,03,24,13,59,8.00
2013,03,24,14,00,8.00
2013,03,24,14,01,8.00
2013,03,24,14,02,8.00
2013,03,24,14,03,8.00
2013,03,24,14,04,8.00
2013,03,24,14,05,8.00
2013,03,24,14,06,8.00
2013,03,24,14,07,7.90
2013,03,24,14,08,7.90
2013,03,24,14,09,8.00
2013,03,24,14,10,8.00
2013,03,24,14,11,8.00
2013,03,24,14,12,7.90
2013,03,24,14,13,7.90
2013,03,24,14,14,7.90
2013,03,24,14,15,7.80
2013,03,24,14,16,7.80
2013,03,24,14,17,7.80
2013,03,24,14,18,7.80
2013,03,24,14,19,7.80
2013,03,24,14,20,7.80
2013,03,24,14,21,7.80
2013,03,24,14,22,7.80
2013,03,24,14,23,7.80
2013,03,24,14,24,7.80
2013,03,24,14,25,7.80
2013,03,24,14,26,7.80
2013,03,24,14,27,7.80
2013,03,24,14,28,7.80
2013,03,24,14,29,7.90
2013,03,24,14,30,7.90
2013,03,24,14,31,8.00
2013,03,24,14,32,8.00
2013,03,24,14,33,8.00
2013,03,24,14,34,7.90
2013,03,24,14,35,8.00
2013,03,24,14,36,8.00
2013,03,24,14,37,8.00
2013,03,24,14,38,8.00
2013,03,24,14,39,8.00
2013,03,24,14,40,8.00
2013,03,24,14,41,8.10
2013,03,24,14,42,8.10
2013,03,24,14,43,8.20
2013,03,24,14,44,8.20
2013,03,24,14,45,8.20
2013,03,24,14,46,8.20
2013,03,24,14,47,8.30
2013,03,24,14,48,8.30
2013,03,24,14,49,8.30
2013,03,24,14,50,8.40
2013,03,24,14,51,8.40
2013,03,24,14,52,8.50
2013,03,24,14,53,8.50
2013,03,24,14,54,8.60
2013,03,24,14,55,8.70
2013,03,24,14,56,8.80
2013,03,24,14,57,8.80
2013,03,24,14,58,8.80
2013,03,24,14,59,8.80
2013,03,24,15,00,8.80
2013,03,24,15,01,8.80
2013,03,24,15,02,8.70
2013,03,24,15,03,8.70
2013,03,24,15,04,8.70
2013,03,24,15,05,8.70
2013,03,24,15,06,8.80
2013,03,24,15,07,8.80
2013,03,24,15,08,8.80
2013,03,24,15,09,8.80
2013,03,24,15,10,8.90
2013,03,24,15,11,9.00
2013,03,24,15,12,9.10
2013,03,24,15,13,9.10
2013,03,24,15,14,9.10
2013,03,24,15,15,9.10
2013,03,24,15,16,9.10
2013,03,24,15,17,9.20
2013,03,24,15,18,9.10
2013,03,24,15,19,9.10
2013,03,24,15,20,9.10
2013,03,24,15,21,9.00
2013,03,24,15,22,9.00
2013,03,24,15,23,9.00
2013,03,24,15,24,9.00
2013,03,24,15,25,9.00
2013,03,24,15,26,9.10
2013,03,24,15,27,9.20
2013,03,24,15,28,9.20
2013,03,24,15,29,9.20
2013,03,24,15,30,9.20
2013,03,24,15,31,9.20
2013,03,24,15,32,9.20
2013,03,24,15,33,9.20
2013,03,24,15,34,9.20
2013,03,24,15,35,9.20
2013,03,24,15,36,9.30
2013,03,24,15,37,9.40
2013,03,24,15,38,9.40
2013,03,24,15,39,9.50
2013,03,24,15,40,9.50
2013,03,24,15,41,9.50
2013,03,24,15,42,9.50
2013,03,24,15,43,9.40
2013,03,24,15,44,9.40
2013,03,24,15,45,9.40
2013,03,24,15,46,9.50
2013,03,24,15,47,9.50
2013,03,24,15,48,9.40
2013,03,24,15,49,9.30
2013,03,24,15,50,9.30
2013,03,24,15,51,9.30
2013,03,24,15,52,9.30
2013,03,24,15,53,9.30
2013,03,24,15,54,9.30
2013,03,24,15,55,9.30
2013,03,24,15,56,9.40
2013,03,24,15,57,9.30
2013,03,24,15,58,9.30
2013,03,24,15,59,9.30
2013,03,24,16,00,9.30
2013,03,24,16,01,9.30
2013,03,24,16,02,9.40
2013,03,24,16,03,9.40
2013,03,24,16,04,9.30
2013,03,24,16,05,9.30
2013,03,24,16,06,9.30
2013,03,24,16,07,9.30
2013,03,24,16,08,9.30
2013,03,24,16,09,9.40
2013,03,24,16,10,9.40
2013,03,24,16,11,9.40
2013,03,24,16,12,9.40
2013,03,24,16,13,9.40
2013,03,24,16,14,9.40
2013,03,24,16,15,9.40
2013,03,24,16,16,9.50
2013,03,24,16,17,9.50
2013,03,24,16,18,9.50
2013,03,24,16,19,9.60
2013,03,24,16,20,9.50
2013,03,24,16,21,9.50
2013,03,24,16,22,9.50
2013,03,24,16,23,9.40
2013,03,24,16,24,9.40
2013,03,24,16,25,9.40
2013,03,24,16,26,9.40
2013,03,24,16,27,9.40
2013,03,24,16,28,9.40
2013,03,24,16,29,9.40
2013,03,24,16,30,9.30
2013,03,24,16,31,9.30
2013,03,24,16,32,9.30
2013,03,24,16,33,9.20
2013,03,24,16,34,9.20
2013,03,24,16,35,9.20
2013,03,24,16,36,9.20
2013,03,24,16,37,9.20
2013,03,24,16,38,9.20
2013,03,24,16,39,9.20
2013,03,24,16,40,9.30
2013,03,24,16,41,9.30
2013,03,24,16,42,9.30
2013,03,24,16,43,9.40
2013,03,24,16,44,9.40
2013,03,24,16,45,9.30
2013,03,24,16,46,9.30
2013,03,24,16,47,9.30
2013,03,24,16,48,9.30
2013,03,24,16,49,9.30
2013,03,24,16,50,9.30
2013,03,24,16,51,9.30
2013,03,24,16,52,9.30
2013,03,24,16,53,9.20
2013,03,24,16,54,9.20
2013,03,24,16,55,9.20
2013,03,24,16,56,9.20
2013,03,24,16,57,9.20
2013,03,24,16,58,9.30
2013,03,24,16,59,9.30
2013,03,24,17,00,9.30
2013,03,24,17,01,9.30
2013,03,24,17,02,9.20
2013,03,24,17,03,9.20
2013,03,24,17,04,9.20
2013,03,24,17,05,9.30
2013,03,24,17,06,9.30
2013,03,24,17,07,9.30
2013,03,24,17,08,9.40
2013,03,24,17,09,9.40
2013,03,24,17,10,9.40
2013,03,24,17,11,9.30
2013,03,24,17,12,9.30
2013,03,24,17,13,9.40
2013,03,24,17,14,9.40
2013,03,24,17,15,9.40
2013,03,24,17,16,9.40
2013,03,24,17,17,9.40
2013,03,24,17,18,9.50
2013,03,24,17,19,9.50
2013,03,24,17,20,9.50
2013,03,24,17,21,9.50
2013,03,24,17,22,9.50
2013,03,24,17,23,9.50
2013,03,24,17,24,9.50
2013,03,24,17,25,9.50
2013,03,24,17,26,9.60
2013,03,24,17,27,9.60
2013,03,24,17,28,9.60
2013,03,24,17,29,9.60
2013,03,24,17,30,9.60
2013,03,24,17,31,9.60
2013,03,24,17,32,9.60
2013,03,24,17,33,9.60
2013,03,24,17,34,9.50
2013,03,24,17,35,9.50
2013,03,24,17,36,9.60
2013,03,24,17,37,9.60
2013,03,24,17,38,9.60
2013,03,24,17,39,9.60
2013,03,24,17,40,9.60
2013,03,24,17,41,9.60
2013,03,24,17,42,9.60
2013,03,24,17,43,9.60
2013,03,24,17,44,9.60
2013,03,24,17,45,9.60
2013,03,24,17,46,9.60
2013,03,24,17,47,9.60
2013,03,24,17,48,9.60
2013,03,24,17,49,9.60
2013,03,24,17,50,9.60
2013,03,24,17,51,9.60
2013,03,24,17,52,9.60
2013,03,24,17,53,9.60
2013,03,24,17,54,9.60
2013,03,24,17,55,9.50
2013,03,24,17,56,9.50
2013,03,24,17,57,9.50
2013,03,24,17,58,9.50
2013,03,24,17,59,9.50
2013,03,24,18,00,9.50
2013,03,24,18,01,9.50
2013,03,24,18,02,9.50
2013,03,24,18,03,9.40
2013,03,24,18,04,9.40
2013,03,24,18,05,9.40
2013,03,24,18,06,9.40
2013,03,24,18,07,9.30
2013,03,24,18,08,9.30
2013,03,24,18,09,9.30
2013,03,24,18,10,9.30
2013,03,24,18,11,9.30
2013,03,24,18,12,9.30
2013,03,24,18,13,9.30
2013,03,24,18,14,9.30
2013,03,24,18,15,9.30
2013,03,24,18,16,9.30
2013,03,24,18,17,9.30
2013,03,24,18,18,9.30
2013,03,24,18,19,9.30
2013,03,24,18,20,9.30
2013,03,24,18,21,9.30
2013,03,24,18,22,9.30
